RH
49 46 40 37 39 37 32 29 28 26 25 23 22 18 15 10 6 15 9 9 10 13 26 32 31 27 26 21 22 21 24 26 26 26 35 31 32 30 27 31 33 32 27 32 43
48 45 43 37 36 35 33 29 27 25 24 22 22 18 13 11 34 9 7 6 10 14 18 20 16 22 18 19 21 22 22 26 24 23 27 30 30 32 32 34 38 36 32 37 41
51 44 42 39 34 33 31 29 27 25 22 20 20 18 12 13 18 8 6 6 13 13 10 12 14 18 18 17 21 24 26 24 24 22 23 28 30 27 29 31 32 36 36 34 36
51 48 43 40 35 32 30 27 25 23 20 19 18 17 11 44 15 10 11 6 12 18 10 13 14 17 18 20 20 25 25 24 26 24 25 28 28 28 28 26 25 28 31 34 35
53 50 45 39 36 33 29 26 23 20 19 18 18 14 24 11 6 8 10 8 12 13 11 13 15 16 19 20 20 24 26 25 25 24 25 26 29 28 31 25 26 28 31 33 32
56 52 47 40 36 32 28 25 21 21 20 18 18 12 26 4 7 15 21 13 12 10 12 12 14 14 16 19 22 23 25 27 26 26 27 28 29 27 31 26 30 32 32 31 32
59 56 48 43 35 32 28 24 23 27 21 19 14 26 13 3 14 14 13 9 10 11 11 12 14 14 15 22 21 22 27 27 28 28 28 25 34 30 28 28 31 31 31 30 32
61 56 48 42 34 32 27 28 30 25 21 14 15 40 6 4 9 10 10 9 10 12 14 14 14 15 17 19 21 21 21 29 30 27 29 28 36 31 28 29 31 29 30 31 33
63 55 48 39 34 32 27 32 29 18 15 16 39 20 3 6 7 8 9 9 9 12 13 17 14 15 18 18 19 19 22 25 30 26 29 29 31 30 27 29 30 29 30 30 34
59 54 46 35 31 31 27 36 37 39 41 49 37 19 7 7 8 9 9 9 9 11 12 12 12 14 15 14 24 20 21 24 25 28 27 30 29 30 28 29 30 30 30 30 29
50 47 40 30 31 31 30 40 29 26 28 8 5 8 9 9 10 8 8 8 9 11 14 13 14 16 15 16 17 19 20 20 24 25 26 26 26 28 28 27 29 30 29 32 31
53 47 41 28 32 31 37 22 26 29 19 12 14 14 11 11 9 8 8 9 12 14 12 14 16 14 13 15 16 17 17 21 24 25 26 27 27 26 29 28 27 29 29 30 29
71 64 60 28 31 36 32 26 30 32 24 14 11 8 8 10 9 8 8 8 12 13 13 14 13 13 14 15 14 14 17 20 23 23 25 22 32 33 30 28 27 25 24 24 26
78 75 73 29 38 39 27 36 30 35 16 11 10 7 9 8 9 7 8 8 11 12 12 12 12 14 14 14 12 15 17 20 20 18 20 20 23 29 31 32 30 28 26 24 23
80 78 71 64 55 31 27 29 33 29 10 6 8 9 7 9 8 9 7 8 11 11 11 12 12 13 14 12 11 16 17 18 19 17 18 20 15 25 29 32 28 27 24 21 21
77 72 61 66 65 38 35 31 30 20 10 9 8 9 9 8 7 7 8 7 8 10 10 10 10 11 10 12 12 14 17 17 15 15 15 20 19 15 18 18 20 21 22 21 19
73 63 66 74 26 38 35 24 18 13 9 10 8 8 7 8 7 7 9 9 10 14 13 11 11 9 9 11 14 16 14 15 16 14 16 17 17 16 14 16 16 17 19 19 20
62 56 59 45 50 44 27 23 18 8 8 8 7 7 7 7 7 7 7 8 7 8 9 12 14 10 9 12 12 15 13 15 20 16 14 19 16 16 15 16 16 17 17 18 18
57 51 47 41 53 49 26 23 12 9 12 9 8 8 8 7 7 8 7 6 7 7 9 10 11 9 10 12 12 17 16 12 13 12 12 12 12 13 14 15 14 15 16 17 18
73 42 28 45 50 34 24 19 13 15 13 11 7 7 9 8 8 8 8 6 7 6 6 9 13 10 13 14 14 15 14 16 14 17 13 10 11 14 13 15 16 16 16 17 18
58 27 41 48 40 24 21 14 13 14 14 11 8 8 7 8 8 8 8 7 6 7 7 9 12 12 13 16 14 16 14 14 12 13 13 11 12 12 18 16 15 14 16 16 18
41 28 41 44 27 16 15 16 25 13 11 10 11 8 7 6 7 7 7 7 6 5 8 8 11 13 11 8 9 10 11 11 15 20 12 10 12 12 16 15 16 15 17 17 23
37 35 37 37 22 19 18 16 15 14 12 11 11 10 9 7 8 7 7 6 7 6 8 8 10 14 12 8 8 10 12 11 10 9 14 12 11 12 16 17 19 17 19 22 23
44 34 33 30 28 17 17 15 15 19 17 15 13 10 10 9 7 8 8 6 7 6 20 13 10 12 13 10 9 12 12 11 10 11 12 9 8 8 18 21 23 23 21 21 26
40 43 45 33 29 22 18 18 16 21 20 21 15 12 13 9 8 9 7 8 8 28 8 8 12 11 10 8 8 10 9 8 10 8 9 9 8 15 27 28 30 25 25 26 27
47 48 41 40 42 34 44 26 21 23 24 18 17 22 20 12 12 11 8 8 9 12 9 6 11 10 12 8 7 8 8 8 8 8 9 8 13 27 31 29 29 30 33 36 36
55 53 50 62 37 32 28 33 32 34 29 30 31 27 20 19 26 24 19 10 9 10 8 7 8 12 14 9 9 12 10 8 9 8 8 11 18 28 34 36 35 36 39 41 42
Wind_Speed
22 22 22 22 23 23 22 23 22 22 23 22 22 20 18 17 12 6 7 2 5 9 10 11 7 7 5 1 2 2 0 7 7 8 8 9 11 6 4 11 8 4 11 18 19
22 23 24 23 23 24 23 24 24 23 24 22 21 18 15 16 7 9 5 6 8 7 7 9 7 9 4 2 1 4 4 7 5 7 9 10 8 7 10 9 10 13 17 20 18
23 23 25 24 24 25 25 24 25 26 24 21 18 15 13 11 6 5 10 10 11 7 4 5 3 8 3 2 2 3 7 4 5 4 9 10 7 5 9 4 13 17 18 17 16
24 25 24 26 25 26 27 26 26 27 23 19 15 12 10 3 9 5 5 12 12 6 6 4 5 4 1 3 3 4 6 3 7 7 8 9 8 7 4 10 13 17 17 16 14
25 26 27 26 26 27 28 27 29 26 20 15 11 8 4 8 3 1 3 13 10 7 7 4 5 1 3 4 5 7 7 7 8 8 8 8 8 9 7 11 12 15 15 14 12
26 28 28 28 28 29 29 31 28 22 16 11 6 3 5 10 2 4 3 14 9 8 4 5 1 1 4 4 3 5 9 9 7 9 7 6 8 9 9 14 14 14 14 13 11
26 28 29 30 29 30 30 32 24 18 11 6 3 1 8 4 1 2 7 13 7 5 4 1 1 7 1 6 5 6 7 8 7 6 4 7 7 3 13 15 15 15 13 12 11
27 29 30 31 29 30 32 24 19 9 2 2 3 3 5 3 3 3 9 10 6 4 5 2 3 5 3 8 6 3 3 4 8 8 6 6 9 9 14 15 16 16 14 12 12
28 29 30 30 30 29 30 17 7 4 4 3 1 5 4 1 7 8 10 10 11 6 5 2 4 2 5 6 7 3 8 6 6 7 6 10 6 11 14 14 14 15 14 13 12
28 29 29 29 29 29 24 8 4 2 1 2 5 5 5 8 7 7 9 9 10 9 8 8 5 6 5 5 8 7 5 4 1 7 8 9 5 11 16 15 15 14 13 12 13
27 28 28 29 26 28 18 5 5 6 8 5 2 4 2 2 5 10 11 12 11 12 13 6 9 1 8 6 5 3 3 5 4 5 5 5 5 9 16 15 14 13 14 14 14
25 26 28 28 25 18 9 4 5 6 7 12 10 9 9 3 10 12 12 13 14 15 11 8 11 6 2 2 3 3 3 9 5 3 6 3 2 6 15 15 15 14 13 14 14
22 25 28 26 23 3 10 0 4 5 6 9 9 8 7 9 15 15 16 10 17 20 15 15 9 5 3 1 7 7 9 8 6 3 4 5 7 7 10 12 12 14 13 15 15
25 25 29 25 4 10 5 3 11 4 5 12 10 8 9 9 10 15 18 11 8 17 17 15 11 6 6 4 7 8 5 3 3 9 6 9 11 6 8 12 15 16 16 16 17
25 25 25 17 12 5 2 8 5 5 8 18 11 8 15 17 16 12 11 9 16 12 8 12 10 10 11 5 4 6 2 4 5 2 6 6 4 7 6 8 13 16 16 16 16
27 28 23 5 6 10 11 11 5 7 7 10 12 15 18 20 13 17 13 10 5 12 13 12 2 6 1 3 2 1 6 7 4 5 11 6 5 8 7 7 9 10 13 13 12
31 24 18 7 3 2 11 4 6 11 5 10 18 23 24 21 16 14 21 19 14 16 13 17 12 5 5 7 3 7 13 2 0 5 9 4 3 9 8 6 5 7 6 8 9
30 19 12 15 6 4 8 7 11 5 9 2 16 23 22 22 15 18 20 20 21 19 12 15 16 17 9 11 9 5 10 3 1 4 9 2 6 7 5 5 4 3 3 3 4
21 4 5 5 7 8 7 12 7 6 3 10 15 22 18 21 9 16 19 22 17 17 10 13 10 7 5 4 11 7 6 9 3 4 2 3 7 6 4 7 6 4 4 4 4
10 5 5 5 7 10 9 12 1 0 1 6 17 19 21 21 14 17 18 20 20 18 14 9 13 6 8 7 4 8 4 5 2 2 3 8 2 9 7 7 6 5 5 5 5
4 4 3 6 9 7 11 10 4 3 2 4 8 14 19 21 18 19 17 10 19 18 13 5 11 10 10 11 12 6 8 5 2 5 2 1 8 7 5 5 2 5 4 5 6
5 4 8 4 7 9 12 5 1 4 4 2 3 4 14 18 19 17 15 15 21 20 19 10 12 12 12 6 3 5 8 10 8 9 2 6 9 7 6 7 3 1 3 2 2
4 1 5 5 7 10 5 8 3 6 3 2 3 3 4 13 14 16 13 12 14 19 18 12 8 9 10 9 5 7 10 9 4 2 4 6 8 5 7 8 6 4 3 3 5
4 4 4 6 4 7 11 13 10 5 5 3 1 2 6 10 11 15 12 7 13 20 8 12 10 11 10 8 8 8 10 10 11 6 8 3 9 8 7 7 8 6 4 3 3
2 3 5 7 7 7 8 7 12 7 4 3 4 1 1 10 14 9 16 11 9 6 9 16 16 11 9 4 2 10 12 10 10 6 5 12 5 6 6 6 6 7 7 6 4
4 4 1 1 3 8 5 7 9 7 4 7 3 2 2 5 3 11 8 12 10 8 11 14 11 13 15 5 6 9 7 8 5 5 3 3 5 4 5 6 7 9 10 11 10
5 2 4 4 6 8 6 5 5 3 3 2 2 4 3 6 5 6 8 5 2 9 14 14 12 9 14 11 9 11 12 11 8 6 4 8 9 9 9 10 10 11 11 11 11
Wind_Direction
0 359 358 357 356 355 353 349 343 336 334 335 331 332 336 325 321 297 247 117 180 172 134 152 183 191 205 209 245 250 237 57 51 38 114 138 132 84 107 127 71 74 99 121 143
359 356 354 352 351 350 349 345 338 335 330 330 328 331 331 327 313 252 251 195 172 160 168 200 184 192 216 168 117 310 16 48 28 62 118 159 144 123 149 124 113 109 111 130 145
354 354 350 348 345 346 344 341 336 331 326 326 325 330 326 330 265 184 211 194 166 176 271 277 242 210 213 221 76 50 44 62 64 75 113 139 136 135 146 127 145 140 141 147 152
351 350 348 345 342 342 340 336 332 326 322 320 322 326 318 290 209 120 145 192 178 201 256 251 212 226 318 68 85 120 59 86 97 114 123 133 126 137 106 94 138 143 147 153 160
349 348 345 343 340 339 337 333 327 321 316 313 317 321 309 225 251 71 211 199 179 191 246 254 223 234 60 93 80 97 103 93 112 128 125 123 140 130 90 132 136 142 153 157 157
344 345 343 341 338 337 333 331 324 317 310 307 300 300 261 236 21 317 219 166 180 204 206 255 271 112 102 48 353 93 98 102 127 121 137 141 129 159 121 138 144 157 163 159 158
339 340 340 338 337 335 332 329 322 313 303 286 251 200 253 248 85 38 153 168 178 217 216 129 182 281 111 105 111 130 125 132 126 141 138 141 148 138 143 153 154 168 170 162 171
335 336 336 335 335 333 332 328 327 326 306 210 174 234 260 224 220 218 172 169 169 164 104 130 193 98 342 118 153 176 209 171 137 162 156 236 126 132 156 166 164 172 172 177 178
330 332 333 332 333 332 332 327 5 46 87 121 228 251 213 194 217 180 180 179 168 166 153 176 239 76 179 226 159 149 70 88 147 209 165 219 107 155 168 175 171 177 179 186 185
325 328 328 328 332 331 329 303 312 338 35 265 256 236 220 182 155 162 173 173 171 167 179 209 217 228 194 327 47 35 56 124 76 177 203 201 197 163 178 184 177 182 186 199 197
323 325 325 326 331 332 330 281 217 188 212 278 123 303 129 153 185 184 168 175 185 202 214 201 254 101 27 36 43 36 12 38 107 160 243 197 190 175 186 192 191 196 193 203 215
330 329 328 325 328 328 329 291 54 340 284 222 252 266 253 266 172 167 175 186 193 203 219 201 236 89 4 11 342 349 21 47 135 143 253 145 232 179 190 199 200 201 207 215 215
337 336 331 324 327 338 308 64 12 331 252 166 203 229 196 203 183 170 191 198 197 210 206 230 81 132 225 239 299 97 10 18 10 184 202 288 128 141 188 206 214 220 221 220 223
339 337 330 326 303 333 256 181 323 219 245 158 191 197 184 212 184 157 198 191 201 212 212 233 139 210 250 295 323 78 1 338 337 329 48 325 107 126 162 204 218 226 226 231 228
333 328 321 321 301 275 22 325 322 199 210 150 147 132 163 199 144 180 183 196 202 201 197 208 207 225 247 29 332 43 302 323 318 343 206 65 96 108 159 204 217 221 228 227 229
330 327 318 320 257 255 295 318 199 222 201 158 148 171 172 198 187 151 187 231 275 210 220 224 151 248 352 114 308 178 243 235 236 252 68 31 323 119 129 131 173 205 218 229 235
328 317 298 258 275 297 307 231 206 231 143 162 170 169 180 182 174 187 188 193 192 199 201 216 211 178 221 239 185 215 247 184 106 106 65 53 259 75 124 143 109 140 176 207 219
326 309 277 245 249 290 262 217 224 186 184 145 169 177 186 178 191 192 193 197 211 208 196 205 206 215 197 245 299 227 312 347 167 33 99 174 55 88 111 143 163 205 160 137 198
327 282 235 246 216 210 231 210 197 182 97 180 177 178 186 177 176 187 201 198 187 217 215 196 204 121 193 204 241 145 224 23 230 160 215 60 132 114 195 229 214 178 176 181 184
313 262 206 191 186 197 226 225 123 311 287 224 186 191 183 184 188 194 190 204 195 202 236 205 186 178 152 169 192 292 91 210 212 97 32 108 90 81 92 119 127 147 150 135 127
254 234 55 159 160 215 210 188 211 189 271 244 206 190 197 184 199 195 179 186 201 193 208 251 217 144 168 213 173 179 217 234 40 328 345 157 95 44 60 51 61 124 119 107 122
286 210 141 167 201 209 214 182 33 189 184 201 236 241 211 184 199 200 207 212 192 187 194 215 211 165 190 106 4 300 235 198 243 147 46 309 95 80 63 62 45 106 134 95 147
295 47 183 223 210 200 158 191 234 209 196 169 161 256 212 197 196 209 200 191 197 185 193 185 225 173 170 173 172 225 201 234 295 351 133 298 109 81 72 78 78 68 91 171 181
275 182 165 217 300 242 189 204 194 199 257 276 330 229 188 188 203 192 195 159 192 200 177 191 218 232 192 199 162 177 187 208 234 189 144 270 122 132 58 46 44 42 55 128 168
260 67 2 189 195 220 207 176 201 191 212 220 172 179 222 181 188 198 198 137 172 144 192 214 227 220 244 67 242 196 176 190 227 290 261 136 175 67 30 26 41 52 64 81 90
322 319 196 265 216 214 169 197 198 166 242 166 198 81 21 146 346 144 197 199 166 177 187 210 225 208 228 190 234 220 187 190 201 208 215 211 136 59 84 94 83 77 71 69 64
6 283 284 137 196 216 180 152 163 210 159 327 4 285 194 98 351 317 295 314 5 184 188 193 215 198 218 194 193 216 200 190 180 194 255 216 103 131 110 91 79 81 75 66 57